Location: Bailleul
(50.3375°N, 2.8513°E)
Time: 21:02:51
(UTC+00:00)

Cosmos 1862 - Pass Details

Date: 19 April 2021
Orbit: 537 x 556 km, 82.5° (Epoch: 17 May)

Event Time Altitude Azimuth Distance (km) Brightness Sun altitude
Rises 21:51:04 0° 349° (N) 2,705 8.0 -23.1°
Reaches altitude 10° 21:53:14 10° 349° (N) 1,808 6.9 -23.3°
Enters shadow 21:56:55 76° 342° (NNW) 562 3.3 -23.6°
